EW0294 Weather Reports


time (UTC)temp
C
wind
direction
speed
KPH
gust
KPH
rain 1hr
cm
rain 24hr
cm
rain mn
cm
humidity
%
barometer
mb
20260505200027 25 59 8.0 17.7 0.00 0.00 0.00 42 1000.4
20260505194526 25 197 4.8 17.7 0.00 0.00 0.00 42 1000.3
20260505193034 26 136 8.0 27.4 0.00 0.00 0.00 41 1000.4
20260505191524 27 258 8.0 37.0 0.00 0.00 0.00 35 1000.4
20260505190025 27 219 11.3 27.4 0.00 0.00 0.00 34 1000.7
20260505184518 26 236 11.3 29.0 0.00 0.00 0.00 37 1001.0
20260505183021 26 231 9.7 20.9 0.00 0.00 0.00 36 1001.2
20260505181514 25 308 8.0 25.7 0.00 0.00 0.00 41 1001.3
20260505180011 24 127 4.8 19.3 0.00 0.00 0.00 41 1001.7
20260505174509 25 83 6.4 14.5 0.00 0.00 0.00 41 1002.0
20260505173006 24 355 3.2 17.7 0.00 0.00 0.00 42 1002.1
20260505171505 25 141 6.4 14.5 0.00 0.00 0.00 41 1002.5
20260505170003 25 350 9.7 22.5 0.00 0.00 0.00 40 1002.9
20260505164604 24 205 4.8 17.7 0.00 0.00 0.00 41 1003.1
20260505163057 23 244 6.4 16.1 0.00 0.00 0.00 41 1003.4
20260505161557 23 64 4.8 19.3 0.00 0.00 0.00 44 1003.8
20260505153059 21 211 4.8 20.9 0.00 0.08 0.00 45 1004.6
20260505151543 21 238 6.4 16.1 0.00 0.08 0.00 45 1004.9
20260505124523 11 182 1.6 4.8 0.00 0.08 0.00 78 1005.9
20260505123012 8 190 0.0 3.2 0.00 0.08 0.00 88 1006.1
20260505121506 8 190 0.0 1.6 0.00 0.08 0.00 93 1006.4
20260505120002 7 190 0.0 3.2 0.00 0.08 0.00 94 1006.5
20260505114558 6 190 0.0 0.0 0.00 0.08 0.00 95 1006.5
20260505113114 5 190 0.0 0.0 0.00 0.08 0.00 95 1006.4
20260505111556 4 190 0.0 0.0 0.00 0.08 0.00 94 1006.5
20260505101554 2 190 0.0 0.0 0.00 0.08 0.00 91 1006.3
20260505100054 2 190 0.0 0.0 0.00 0.08 0.00 91 1006.3
20260505094552 2 190 0.0 0.0 0.00 0.08 0.00 91 1006.4
20260505093059 1 190 0.0 0.0 0.00 0.08 0.00 90 1006.4
20260505091552 1 190 0.0 0.0 0.00 0.08 0.00 90 1006.4
20260505090050 1 190 0.0 0.0 0.00 0.08 0.00 90 1006.4
20260505084553 1 190 0.0 0.0 0.00 0.08 0.00 89 1006.5
20260505083053 2 190 0.0 0.0 0.00 0.08 0.00 89 1006.6
20260505081551 2 190 0.0 0.0 0.00 0.08 0.00 89 1006.6
20260505080047 2 190 0.0 0.0 0.00 0.08 0.00 89 1006.7
20260505074545 2 190 0.0 0.0 0.00 0.08 0.00 88 1006.7
20260505073044 2 190 0.0 0.0 0.00 0.08 0.00 89 1006.7
20260505071542 2 190 0.0 0.0 0.00 0.08 0.00 89 1006.5
20260505070045 3 190 0.0 0.0 0.00 0.08 0.00 88 1006.6
20260505064539 3 190 0.0 0.0 0.00 0.08 0.00 88 1006.6
20260505063039 3 190 0.0 0.0 0.00 0.08 0.00 88 1006.7
20260505061536 3 190 0.0 0.0 0.00 0.08 0.00 87 1006.5
20260505060038 3 190 0.0 3.2 0.00 0.08 0.00 87 1006.5
20260505054533 3 190 0.0 1.6 0.00 0.08 0.00 86 1006.8
20260505053049 4 190 0.0 0.0 0.00 0.08 0.00 86 1006.7
20260505051530 4 190 0.0 0.0 0.00 0.08 0.00 86 1006.4
20260505041520 5 190 0.0 0.0 0.00 0.08 0.00 83 1006.2
20260505040017 6 190 0.0 0.0 0.00 0.08 0.00 83 1006.1
20260505034523 6 190 0.0 3.2 0.00 0.08 0.08 84 1006.0
20260505033017 6 190 0.0 0.0 0.00 0.08 0.08 82 1006.1
20260505031516 7 190 0.0 0.0 0.00 0.08 0.08 81 1005.9
20260505030015 7 190 0.0 0.0 0.00 0.08 0.08 81 1006.0
20260505024515 7 190 0.0 0.0 0.00 0.08 0.08 81 1006.1
20260505023015 8 190 0.0 3.2 0.00 0.08 0.08 80 1006.3
20260505021515 8 190 0.0 0.0 0.00 0.08 0.08 79 1006.4
20260505020014 8 190 0.0 0.0 0.00 0.08 0.08 77 1006.4
20260505014513 9 190 0.0 1.6 0.00 0.08 0.08 76 1006.1
20260505013014 10 190 0.0 0.0 0.00 0.08 0.08 75 1005.9
20260505011527 10 190 0.0 0.0 0.00 0.08 0.08 73 1005.8
20260505010016 11 190 0.0 0.0 0.00 0.08 0.08 72 1005.7
20260505004511 11 190 0.0 0.0 0.00 0.08 0.08 70 1005.6
20260505003011 12 190 0.0 0.0 0.00 0.08 0.08 68 1005.2
20260505001511 12 190 0.0 0.0 0.00 0.08 0.08 66 1004.9
20260505000013 13 190 0.0 0.0 0.00 0.08 0.08 64 1004.7
20260504234509 15 190 0.0 0.0 0.00 0.08 0.08 61 1004.6
20260504233009 15 190 0.0 0.0 0.00 0.08 0.08 56 1004.5
20260504231509 16 190 0.0 0.0 0.00 0.08 0.08 54 1004.4
20260504230007 16 190 0.0 3.2 0.00 0.08 0.08 52 1004.2
20260504224511 16 190 0.0 3.2 0.00 0.08 0.08 51 1004.0
20260504223006 16 106 0.0 8.0 0.00 0.08 0.08 50 1004.0
20260504221508 16 86 0.0 4.8 0.00 0.08 0.08 49 1004.1
20260504220005 16 40 0.0 1.6 0.00 0.08 0.08 51 1004.1
20260504214507 16 348 0.0 4.8 0.00 0.08 0.08 50 1004.1
20260504213003 16 5 1.6 4.8 0.00 0.08 0.08 50 1004.1
20260504211502 16 100 0.0 8.0 0.00 0.08 0.08 52 1004.1
20260504210001 16 9 0.0 6.4 0.00 0.08 0.08 54 1004.2
20260504204501 16 319 3.2 9.7 0.00 0.08 0.08 52 1004.1
20260504203105 16 344 3.2 8.0 0.00 0.08 0.08 53 1004.1
20260504201559 15 338 1.6 9.7 0.00 0.08 0.08 54 1004.0